Time,TemperatureF,DewpointF,PressureIn,WindDirection,WindDirectionDegrees,WindSpeedMPH,WindSpeedGustMPH,Humidity,HourlyPrecipIn,Conditions,Clouds,dailyrainin,SoftwareType,DateUTC
2013-01-13 00:00:00,70.2,67.7,29.97,SSE,158,6.9,14.0,92,0.00,CLR,,0.00,WeatherDisplay:10.37,2013-01-13 06:00:00,
2013-01-13 00:05:00,70.2,67.7,29.98,South,180,7.5,7.5,92,0.00,CLR,,0.00,WeatherDisplay:10.37,2013-01-13 06:05:00,
2013-01-13 00:10:00,70.2,67.7,29.98,SSE,158,18.4,29.7,92,0.00,,,0.00,WeatherDisplay:10.37,2013-01-13 06:10:00,
2013-01-13 00:15:00,70.2,67.7,29.97,South,180,3.5,7.0,92,0.00,CLR,,0.00,WeatherDisplay:10.37,2013-01-13 06:15:00,
2013-01-13 00:20:00,70.2,67.7,29.97,South,180,11.5,22.7,92,0.00,CLR,,0.00,WeatherDisplay:10.37,2013-01-13 06:20:00,
2013-01-13 00:25:00,70.2,67.7,29.97,SSE,158,8.1,10.5,92,0.00,CLR,,0.00,WeatherDisplay:10.37,2013-01-13 06:25:00,
2013-01-13 00:30:00,70.2,67.7,29.97,SSE,158,6.9,13.1,92,0.00,CLR,,0.00,WeatherDisplay:10.37,2013-01-13 06:30:00,
2013-01-13 00:35:00,70.2,67.7,29.97,SSE,158,13.8,27.0,92,0.00,CLR,,0.00,WeatherDisplay:10.37,2013-01-13 06:35:00,
2013-01-13 00:40:00,70.2,67.7,29.97,South,180,13.8,25.9,92,0.00,CLR,,0.00,WeatherDisplay:10.37,2013-01-13 06:40:00,
2013-01-13 00:45:00,70.0,67.5,29.97,SSW,202,6.9,14.0,92,0.00,CLR,,0.00,WeatherDisplay:10.37,2013-01-13 06:45:00,
2013-01-13 00:50:00,70.0,67.9,29.97,South,180,11.5,22.8,93,0.00,,,0.00,WeatherDisplay:10.37,2013-01-13 06:50:00,
2013-01-13 00:55:00,70.2,68.0,29.96,SSE,158,17.3,27.4,93,0.00,CLR,,0.00,WeatherDisplay:10.37,2013-01-13 06:55:00,
2013-01-13 01:00:00,70.2,68.0,29.96,South,180,4.6,8.8,93,0.00,CLR,,0.00,WeatherDisplay:10.37,2013-01-13 07:00:00,
2013-01-13 01:05:00,70.2,68.0,29.97,SSE,158,1.1,2.6,93,0.00,CLR,,0.00,WeatherDisplay:10.37,2013-01-13 07:05:00,
2013-01-13 01:10:00,70.2,68.0,29.97,SSE,158,4.6,9.6,93,0.00,CLR,,0.00,WeatherDisplay:10.37,2013-01-13 07:10:00,
2013-01-13 01:15:00,70.2,68.0,29.97,SSE,158,4.6,8.8,93,0.00,CLR,,0.00,WeatherDisplay:10.37,2013-01-13 07:15:00,
2013-01-13 01:20:00,70.2,68.0,29.96,South,180,3.5,7.0,93,0.00,CLR,,0.00,WeatherDisplay:10.37,2013-01-13 07:20:00,
2013-01-13 01:25:00,70.3,68.2,29.96,SSE,158,12.7,21.2,93,0.00,CLR,,0.00,WeatherDisplay:10.37,2013-01-13 07:25:00,
2013-01-13 01:30:00,70.3,68.2,29.96,SSE,158,13.8,27.9,93,0.00,CLR,,0.00,WeatherDisplay:10.37,2013-01-13 07:30:00,
2013-01-13 01:35:00,70.3,68.2,29.96,SSE,158,11.1,21.1,93,0.00,CLR,,0.00,WeatherDisplay:10.37,2013-01-13 07:35:00,
2013-01-13 01:40:00,70.3,68.2,29.95,South,180,13.8,24.7,93,0.00,CLR,,0.00,WeatherDisplay:10.37,2013-01-13 07:40:00,
2013-01-13 01:45:00,70.2,68.0,29.95,SSE,158,5.8,10.5,93,0.00,CLR,,0.00,WeatherDisplay:10.37,2013-01-13 07:45:00,
2013-01-13 01:50:00,70.3,68.2,29.95,SSE,158,10.4,20.1,93,0.00,CLR,,0.00,WeatherDisplay:10.37,2013-01-13 07:50:00,
2013-01-13 01:55:00,70.3,68.2,29.95,South,180,12.7,24.6,93,0.00,CLR,,0.00,WeatherDisplay:10.37,2013-01-13 07:55:00,
2013-01-13 02:00:00,70.3,68.2,29.95,SSE,158,13.8,24.5,93,0.00,CLR,,0.00,WeatherDisplay:10.37,2013-01-13 08:00:00,
2013-01-13 02:05:00,70.3,68.2,29.95,SSE,158,12.4,12.4,93,0.00,CLR,,0.00,WeatherDisplay:10.37,2013-01-13 08:05:00,
2013-01-13 02:10:00,70.2,68.0,29.95,SSW,202,10.6,10.6,93,0.00,CLR,,0.00,WeatherDisplay:10.37,2013-01-13 08:10:00,
2013-01-13 02:15:00,70.2,68.0,29.95,South,180,6.2,12.3,93,0.00,CLR,,0.00,WeatherDisplay:10.37,2013-01-13 08:15:00,
2013-01-13 02:20:00,70.2,68.0,29.95,South,180,6.9,6.9,93,0.00,CLR,,0.00,WeatherDisplay:10.37,2013-01-13 08:20:00,
2013-01-13 02:25:00,70.2,68.0,29.95,South,180,5.8,5.8,93,0.00,CLR,,0.00,WeatherDisplay:10.37,2013-01-13 08:25:00,
2013-01-13 02:30:00,70.2,68.0,29.95,South,180,6.9,11.0,93,0.00,CLR,,0.00,WeatherDisplay:10.37,2013-01-13 08:30:00,
2013-01-13 02:35:00,70.2,68.0,29.94,South,180,3.5,6.1,93,0.00,CLR,,0.00,WeatherDisplay:10.37,2013-01-13 08:35:00,
2013-01-13 02:40:00,70.2,68.0,29.94,ESE,112,12.7,15.7,93,0.00,CLR,,0.00,WeatherDisplay:10.37,2013-01-13 08:40:00,
2013-01-13 02:45:00,70.2,68.0,29.94,SSE,158,12.7,23.0,93,0.00,CLR,,0.00,WeatherDisplay:10.37,2013-01-13 08:45:00,
2013-01-13 02:50:00,70.2,68.0,29.93,SSE,158,4.6,9.6,93,0.00,CLR,,0.00,WeatherDisplay:10.37,2013-01-13 08:50:00,
2013-01-13 02:55:00,70.3,68.2,29.94,SSE,158,8.1,13.7,93,0.00,CLR,,0.00,WeatherDisplay:10.37,2013-01-13 08:55:00,
2013-01-13 03:00:00,70.3,68.2,29.94,SSE,158,8.1,8.1,93,0.00,CLR,,0.00,WeatherDisplay:10.37,2013-01-13 09:00:00,
2013-01-13 03:05:00,70.3,68.2,29.93,South,180,3.5,7.0,93,0.00,CLR,,0.00,WeatherDisplay:10.37,2013-01-13 09:05:00,
2013-01-13 03:10:00,70.3,68.2,29.93,SSE,158,9.2,18.0,93,0.00,CLR,,0.00,WeatherDisplay:10.37,2013-01-13 09:10:00,
2013-01-13 03:15:00,70.3,68.2,29.93,SSE,158,11.5,22.8,93,0.00,CLR,,0.00,WeatherDisplay:10.37,2013-01-13 09:15:00,
2013-01-13 03:20:00,70.3,68.2,29.93,SW,225,8.4,16.6,93,0.00,CLR,,0.00,WeatherDisplay:10.37,2013-01-13 09:20:00,
2013-01-13 03:25:00,70.2,68.0,29.93,South,180,3.5,6.0,93,0.00,CLR,,0.00,WeatherDisplay:10.37,2013-01-13 09:25:00,
2013-01-13 03:30:00,70.2,68.0,29.94,SSE,158,3.5,6.1,93,0.00,CLR,,0.00,WeatherDisplay:10.37,2013-01-13 09:30:00,
2013-01-13 03:35:00,70.2,68.0,29.94,SW,225,12.7,24.2,93,0.00,CLR,,0.00,WeatherDisplay:10.37,2013-01-13 09:35:00,
2013-01-13 03:40:00,70.2,68.0,29.94,SSW,202,1.1,1.4,93,0.00,CLR,,0.00,WeatherDisplay:10.37,2013-01-13 09:40:00,
2013-01-13 03:45:00,70.2,68.0,29.94,SSW,202,5.8,11.3,93,0.00,CLR,,0.00,WeatherDisplay:10.37,2013-01-13 09:45:00,
2013-01-13 03:50:00,70.3,68.2,29.94,SSE,158,8.0,8.0,93,0.00,CLR,,0.00,WeatherDisplay:10.37,2013-01-13 09:50:00,
2013-01-13 03:55:00,70.3,68.2,29.94,South,180,5.8,11.4,93,0.00,CLR,,0.00,WeatherDisplay:10.37,2013-01-13 09:55:00,
2013-01-13 04:00:00,70.3,68.2,29.94,SSW,202,4.6,8.8,93,0.00,CLR,,0.00,WeatherDisplay:10.37,2013-01-13 10:00:00,
2013-01-13 04:05:00,70.3,68.2,29.94,SSW,202,4.6,8.8,93,0.00,CLR,,0.00,WeatherDisplay:10.37,2013-01-13 10:05:00,
2013-01-13 04:10:00,70.3,68.2,29.94,SSW,202,6.2,10.6,93,0.00,CLR,,0.00,WeatherDisplay:10.37,2013-01-13 10:10:00,
2013-01-13 04:15:00,70.3,68.2,29.94,SSW,202,3.5,7.0,93,0.00,CLR,,0.00,WeatherDisplay:10.37,2013-01-13 10:15:00,
2013-01-13 04:20:00,70.3,68.2,29.94,SSE,158,6.9,13.1,93,0.00,CLR,,0.00,WeatherDisplay:10.37,2013-01-13 10:20:00,
2013-01-13 04:25:00,70.5,68.4,29.94,SSW,202,6.2,9.5,93,0.00,CLR,,0.00,WeatherDisplay:10.37,2013-01-13 10:25:00,
2013-01-13 04:30:00,70.5,68.4,29.94,SW,225,9.3,18.3,93,0.00,CLR,,0.00,WeatherDisplay:10.37,2013-01-13 10:30:00,
2013-01-13 04:35:00,70.5,68.4,29.94,SSE,158,9.2,19.3,93,0.00,CLR,,0.00,WeatherDisplay:10.37,2013-01-13 10:35:00,
2013-01-13 04:40:00,70.5,68.4,29.94,South,180,8.1,8.8,93,0.00,CLR,,0.00,WeatherDisplay:10.37,2013-01-13 10:40:00,
2013-01-13 04:45:00,70.5,68.4,29.94,South,180,1.1,3.8,93,0.00,CLR,,0.00,WeatherDisplay:10.37,2013-01-13 10:45:00,
2013-01-13 04:50:00,70.5,68.4,29.94,SSW,202,3.5,6.1,93,0.00,CLR,,0.00,WeatherDisplay:10.37,2013-01-13 10:50:00,
2013-01-13 04:55:00,70.3,68.2,29.94,SSW,202,6.9,13.1,93,0.00,CLR,,0.00,WeatherDisplay:10.37,2013-01-13 10:55:00,
2013-01-13 05:00:00,70.3,68.2,29.94,SSW,202,15.0,29.8,93,0.00,,,0.00,WeatherDisplay:10.37,2013-01-13 11:00:00,
2013-01-13 05:05:00,70.3,68.2,29.94,SSW,202,15.0,29.8,93,0.00,,,0.00,WeatherDisplay:10.37,2013-01-13 11:05:00,
2013-01-13 05:10:00,70.3,68.2,29.94,SSE,158,16.1,30.1,93,0.00,,,0.00,WeatherDisplay:10.37,2013-01-13 11:10:00,
2013-01-13 05:15:00,70.3,68.2,29.95,SSE,158,6.9,13.0,93,0.00,CLR,,0.00,WeatherDisplay:10.37,2013-01-13 11:15:00,
2013-01-13 05:20:00,70.3,68.2,29.95,South,180,2.3,5.3,93,0.00,CLR,,0.00,WeatherDisplay:10.37,2013-01-13 11:20:00,
2013-01-13 05:25:00,70.3,68.2,29.95,SSE,158,10.4,19.4,93,0.00,CLR,,0.00,WeatherDisplay:10.37,2013-01-13 11:25:00,
2013-01-13 05:30:00,70.2,68.0,29.95,SW,225,12.8,22.4,93,0.00,CLR,,0.00,WeatherDisplay:10.37,2013-01-13 11:30:00,
2013-01-13 05:35:00,70.2,68.0,29.95,South,180,7.1,14.0,93,0.00,CLR,,0.00,WeatherDisplay:10.37,2013-01-13 11:35:00,
2013-01-13 05:40:00,70.3,68.2,29.95,SW,225,12.7,24.3,93,0.00,CLR,,0.00,WeatherDisplay:10.37,2013-01-13 11:40:00,
2013-01-13 05:45:00,70.3,68.2,29.96,SSW,202,10.4,20.1,93,0.00,CLR,,0.00,WeatherDisplay:10.37,2013-01-13 11:45:00,
2013-01-13 05:50:00,70.3,68.2,29.96,SW,225,9.2,18.4,93,0.00,CLR,,0.00,WeatherDisplay:10.37,2013-01-13 11:50:00,
2013-01-13 05:55:00,70.3,68.2,29.95,South,180,10.4,20.3,93,0.00,CLR,,0.00,WeatherDisplay:10.37,2013-01-13 11:55:00,
2013-01-13 06:00:00,70.3,68.2,29.95,South,180,4.6,8.8,93,0.00,CLR,,0.00,WeatherDisplay:10.37,2013-01-13 12:00:00,
2013-01-13 06:05:00,70.3,68.2,29.95,South,180,4.6,8.8,93,0.00,CLR,,0.00,WeatherDisplay:10.37,2013-01-13 12:05:00,
2013-01-13 06:10:00,70.3,68.2,29.95,South,180,6.9,10.8,93,0.00,CLR,,0.00,WeatherDisplay:10.37,2013-01-13 12:10:00,
2013-01-13 06:15:00,70.3,68.2,29.95,South,180,10.6,21.0,93,0.00,CLR,,0.00,WeatherDisplay:10.37,2013-01-13 12:15:00,
2013-01-13 06:20:00,70.3,68.2,29.95,South,180,5.8,9.7,93,0.00,CLR,,0.00,WeatherDisplay:10.37,2013-01-13 12:20:00,
2013-01-13 06:25:00,70.3,68.2,29.96,SW,225,12.7,24.4,93,0.00,CLR,,0.00,WeatherDisplay:10.37,2013-01-13 12:25:00,
2013-01-13 06:30:00,70.3,68.2,29.96,South,180,13.8,22.9,93,0.00,CLR,,0.00,WeatherDisplay:10.37,2013-01-13 12:30:00,
2013-01-13 06:35:00,70.3,68.2,29.96,South,180,5.8,11.4,93,0.00,CLR,,0.00,WeatherDisplay:10.37,2013-01-13 12:35:00,
2013-01-13 06:40:00,70.2,68.0,29.96,South,180,12.7,17.9,93,0.00,CLR,,0.00,WeatherDisplay:10.37,2013-01-13 12:40:00,
2013-01-13 06:45:00,70.2,68.0,29.96,South,180,12.7,12.7,93,0.00,CLR,,0.00,WeatherDisplay:10.37,2013-01-13 12:45:00,
2013-01-13 06:50:00,70.2,68.0,29.96,SW,225,6.2,11.4,93,0.00,CLR,,0.00,WeatherDisplay:10.37,2013-01-13 12:50:00,
2013-01-13 06:55:00,70.2,68.0,29.96,SSE,158,10.4,13.2,93,0.00,CLR,,0.00,WeatherDisplay:10.37,2013-01-13 12:55:00,
2013-01-13 07:00:00,70.2,68.0,29.97,SW,225,9.2,17.5,93,0.00,CLR,,0.00,WeatherDisplay:10.37,2013-01-13 13:00:00,
2013-01-13 07:05:00,70.0,67.9,29.97,SSE,158,8.8,11.2,93,0.00,CLR,,0.00,WeatherDisplay:10.37,2013-01-13 13:05:00,
2013-01-13 07:10:00,70.0,67.9,29.97,SW,225,11.5,18.7,93,0.00,CLR,,0.00,WeatherDisplay:10.37,2013-01-13 13:10:00,
2013-01-13 07:15:00,70.2,68.0,29.97,SSE,158,8.1,12.2,93,0.00,CLR,,0.00,WeatherDisplay:10.37,2013-01-13 13:15:00,
2013-01-13 07:20:00,70.2,68.0,29.97,SW,225,3.5,7.0,93,0.00,CLR,,0.00,WeatherDisplay:10.37,2013-01-13 13:20:00,
2013-01-13 07:25:00,70.0,67.9,29.97,SSW,202,12.7,19.9,93,0.00,CLR,,0.00,WeatherDisplay:10.37,2013-01-13 13:25:00,
2013-01-13 07:30:00,70.2,68.0,29.97,SSE,158,9.2,17.9,93,0.00,CLR,,0.00,WeatherDisplay:10.37,2013-01-13 13:30:00,
2013-01-13 07:35:00,70.2,68.0,29.97,South,180,11.5,21.3,93,0.00,CLR,,0.00,WeatherDisplay:10.37,2013-01-13 13:35:00,
2013-01-13 07:40:00,70.3,68.2,29.97,SW,225,11.5,13.1,93,0.00,CLR,,0.00,WeatherDisplay:10.37,2013-01-13 13:40:00,
2013-01-13 07:45:00,70.5,68.4,29.97,SSW,202,6.9,6.9,93,0.00,CLR,,0.00,WeatherDisplay:10.37,2013-01-13 13:45:00,
2013-01-13 07:50:00,70.5,68.4,29.97,SW,225,15.0,30.7,93,0.00,,,0.00,WeatherDisplay:10.37,2013-01-13 13:50:00,
2013-01-13 07:55:00,70.7,68.6,29.97,SSE,158,11.5,15.9,93,0.00,CLR,,0.00,WeatherDisplay:10.37,2013-01-13 13:55:00,
2013-01-13 08:00:00,70.9,68.4,29.97,SW,225,10.4,18.8,92,0.00,CLR,,0.00,WeatherDisplay:10.37,2013-01-13 14:00:00,
2013-01-13 08:05:00,71.1,68.6,29.97,South,180,13.8,26.1,92,0.00,CLR,,0.00,WeatherDisplay:10.37,2013-01-13 14:05:00,
2013-01-13 08:10:00,71.2,68.8,29.97,South,180,8.1,16.6,92,0.00,CLR,,0.00,WeatherDisplay:10.37,2013-01-13 14:10:00,
2013-01-13 08:15:00,71.4,68.7,29.97,SW,225,5.8,6.2,91,0.00,CLR,,0.00,WeatherDisplay:10.37,2013-01-13 14:15:00,
2013-01-13 08:20:00,71.4,68.7,29.97,South,180,2.7,5.3,91,0.00,CLR,,0.00,WeatherDisplay:10.37,2013-01-13 14:20:00,
2013-01-13 08:25:00,71.8,69.0,29.97,SW,225,10.6,19.4,91,0.00,CLR,,0.00,WeatherDisplay:10.37,2013-01-13 14:25:00,
2013-01-13 08:30:00,72.0,68.9,29.97,SE,135,13.8,26.1,90,0.00,CLR,,0.00,WeatherDisplay:10.37,2013-01-13 14:30:00,
2013-01-13 08:35:00,72.0,68.9,29.97,South,180,4.6,9.6,90,0.00,CLR,,0.00,WeatherDisplay:10.37,2013-01-13 14:35:00,
2013-01-13 08:40:00,72.1,68.7,29.97,SSE,158,16.1,23.9,89,0.00,CLR,,0.00,WeatherDisplay:10.37,2013-01-13 14:40:00,
2013-01-13 08:45:00,72.3,68.9,29.97,SSE,158,9.2,16.2,89,0.00,CLR,,0.00,WeatherDisplay:10.37,2013-01-13 14:45:00,
2013-01-13 08:50:00,72.5,69.1,29.97,North,0,10.6,21.0,89,0.00,CLR,,0.00,WeatherDisplay:10.37,2013-01-13 14:50:00,
2013-01-13 08:55:00,72.7,68.9,29.97,SSE,158,11.9,21.8,88,0.00,CLR,,0.00,WeatherDisplay:10.37,2013-01-13 14:55:00,
2013-01-13 09:00:00,72.9,69.1,29.97,SSE,158,13.8,26.4,88,0.00,CLR,,0.00,WeatherDisplay:10.37,2013-01-13 15:00:00,
2013-01-13 09:05:00,73.0,69.3,29.98,SSW,202,3.5,7.0,88,0.00,CLR,,0.00,WeatherDisplay:10.37,2013-01-13 15:05:00,
2013-01-13 09:10:00,73.2,69.1,29.97,South,180,10.4,12.9,87,0.00,CLR,,0.00,WeatherDisplay:10.37,2013-01-13 15:10:00,
2013-01-13 09:15:00,73.2,69.1,29.97,SW,225,12.7,21.4,87,0.00,CLR,,0.00,WeatherDisplay:10.37,2013-01-13 15:15:00,
2013-01-13 09:20:00,73.4,69.3,29.99,SSW,202,4.6,8.8,87,0.00,CLR,,0.00,WeatherDisplay:10.37,2013-01-13 15:20:00,
2013-01-13 09:25:00,73.6,69.5,29.99,SE,135,12.7,15.5,87,0.00,CLR,,0.00,WeatherDisplay:10.37,2013-01-13 15:25:00,
2013-01-13 09:30:00,73.8,69.3,29.99,SE,135,15.0,28.0,86,0.00,CLR,,0.00,WeatherDisplay:10.37,2013-01-13 15:30:00,
2013-01-13 09:35:00,73.9,69.5,29.99,SW,225,9.7,19.3,86,0.00,CLR,,0.00,WeatherDisplay:10.37,2013-01-13 15:35:00,
2013-01-13 09:40:00,74.1,69.3,29.99,WSW,248,6.9,14.0,85,0.00,CLR,,0.00,WeatherDisplay:10.37,2013-01-13 15:40:00,
2013-01-13 09:45:00,74.5,69.7,29.98,South,180,8.1,13.7,85,0.00,CLR,,0.00,WeatherDisplay:10.37,2013-01-13 15:45:00,
2013-01-13 09:50:00,74.5,69.7,29.98,SE,135,8.1,15.8,85,0.00,CLR,,0.00,WeatherDisplay:10.37,2013-01-13 15:50:00,
2013-01-13 09:55:00,74.8,70.0,29.97,SSE,158,11.5,18.2,85,0.00,CLR,,0.00,WeatherDisplay:10.37,2013-01-13 15:55:00,
2013-01-13 10:00:00,75.0,70.2,29.97,WNW,292,11.5,13.1,85,0.00,CLR,,0.00,WeatherDisplay:10.37,2013-01-13 16:00:00,
2013-01-13 10:05:00,75.0,70.2,29.97,SSE,158,11.5,23.6,85,0.00,CLR,,0.00,WeatherDisplay:10.37,2013-01-13 16:05:00,
2013-01-13 10:10:00,75.0,70.2,29.97,SW,225,9.2,18.4,85,0.00,CLR,,0.00,WeatherDisplay:10.37,2013-01-13 16:10:00,
2013-01-13 10:15:00,75.2,70.4,29.97,East,90,12.7,12.7,85,0.00,CLR,,0.00,WeatherDisplay:10.37,2013-01-13 16:15:00,
2013-01-13 10:20:00,75.4,70.2,29.97,SSE,158,16.1,31.5,84,0.00,,,0.00,WeatherDisplay:10.37,2013-01-13 16:20:00,
2013-01-13 10:25:00,75.4,70.2,29.97,SSE,158,8.4,17.0,84,0.00,CLR,,0.00,WeatherDisplay:10.37,2013-01-13 16:25:00,
2013-01-13 10:30:00,75.6,70.4,29.97,South,180,9.2,9.2,84,0.00,CLR,,0.00,WeatherDisplay:10.37,2013-01-13 16:30:00,
2013-01-13 10:35:00,75.7,70.6,29.97,SW,225,12.8,23.0,84,0.00,CLR,,0.00,WeatherDisplay:10.37,2013-01-13 16:35:00,
2013-01-13 10:40:00,75.9,70.7,29.97,SW,225,15.0,27.5,84,0.00,,,0.00,WeatherDisplay:10.37,2013-01-13 16:40:00,
2013-01-13 10:45:00,75.9,70.7,29.98,SSE,158,11.5,21.9,84,0.00,CLR,,0.00,WeatherDisplay:10.37,2013-01-13 16:45:00,
2013-01-13 10:50:00,76.3,71.1,29.99,SSE,158,12.8,14.9,84,0.00,CLR,,0.00,WeatherDisplay:10.37,2013-01-13 16:50:00,
2013-01-13 10:55:00,76.3,70.7,29.98,South,180,3.5,5.2,83,0.00,CLR,,0.00,WeatherDisplay:10.37,2013-01-13 16:55:00,
2013-01-13 11:00:00,76.5,70.9,29.97,SSE,158,13.7,13.7,83,0.00,CLR,,0.00,WeatherDisplay:10.37,2013-01-13 17:00:00,
2013-01-13 11:05:00,76.5,70.9,29.98,SSE,158,13.8,26.2,83,0.00,CLR,,0.00,WeatherDisplay:10.37,2013-01-13 17:05:00,
2013-01-13 11:10:00,76.3,70.7,29.98,SW,225,9.2,18.7,83,0.00,CLR,,0.00,WeatherDisplay:10.37,2013-01-13 17:10:00,
2013-01-13 11:15:00,76.5,70.9,29.98,SSW,202,6.2,12.3,83,0.00,CLR,,0.00,WeatherDisplay:10.37,2013-01-13 17:15:00,
2013-01-13 11:20:00,76.5,70.9,29.98,SSE,158,8.1,14.9,83,0.00,CLR,,0.00,WeatherDisplay:10.37,2013-01-13 17:20:00,
2013-01-13 11:25:00,76.3,70.7,29.98,SSE,158,11.5,19.7,83,0.00,CLR,,0.00,WeatherDisplay:10.37,2013-01-13 17:25:00,
2013-01-13 11:30:00,76.1,70.6,29.98,SW,225,3.5,7.5,83,0.00,CLR,,0.00,WeatherDisplay:10.37,2013-01-13 17:30:00,
2013-01-13 11:35:00,75.9,70.7,29.97,SW,225,9.2,17.5,84,0.00,CLR,,0.00,WeatherDisplay:10.37,2013-01-13 17:35:00,
2013-01-13 11:41:00,75.6,70.4,29.97,South,180,11.5,21.9,84,0.00,CLR,,0.00,WeatherDisplay:10.37,2013-01-13 17:41:00,
2013-01-13 11:46:00,75.4,70.2,29.97,South,180,15.0,28.9,84,0.00,CLR,,0.00,WeatherDisplay:10.37,2013-01-13 17:46:00,
2013-01-13 11:51:00,75.4,70.6,29.97,SE,135,11.5,11.5,85,0.00,CLR,,0.00,WeatherDisplay:10.37,2013-01-13 17:51:00,
2013-01-13 11:56:00,75.4,70.6,29.96,SSW,202,9.2,13.9,85,0.00,CLR,,0.00,WeatherDisplay:10.37,2013-01-13 17:56:00,
2013-01-13 12:01:00,75.4,70.6,29.96,SSE,158,10.6,21.0,85,0.00,CLR,,0.00,WeatherDisplay:10.37,2013-01-13 18:01:00,
2013-01-13 12:06:00,75.4,70.6,29.96,SW,225,6.9,14.0,85,0.00,CLR,,0.00,WeatherDisplay:10.37,2013-01-13 18:06:00,
2013-01-13 12:11:00,75.4,70.6,29.95,SE,135,10.4,16.6,85,0.00,CLR,,0.00,WeatherDisplay:10.37,2013-01-13 18:11:00,
2013-01-13 12:16:00,75.4,70.6,29.95,SSE,158,11.5,21.9,85,0.00,CLR,,0.00,WeatherDisplay:10.37,2013-01-13 18:16:00,
2013-01-13 12:21:00,75.0,70.2,29.95,SSE,158,12.7,24.5,85,0.00,CLR,,0.00,WeatherDisplay:10.37,2013-01-13 18:21:00,
2013-01-13 12:26:00,75.0,70.2,29.95,SSE,158,9.2,14.9,85,0.00,CLR,,0.00,WeatherDisplay:10.37,2013-01-13 18:26:00,
2013-01-13 12:31:00,75.0,70.2,29.95,SW,225,10.4,15.0,85,0.00,CLR,,0.00,WeatherDisplay:10.37,2013-01-13 18:31:00,
2013-01-13 12:36:00,75.0,70.2,29.95,SW,225,12.7,25.9,85,0.00,CLR,,0.00,WeatherDisplay:10.37,2013-01-13 18:36:00,
2013-01-13 12:41:00,75.0,70.2,29.95,SE,135,6.2,12.0,85,0.00,CLR,,0.00,WeatherDisplay:10.37,2013-01-13 18:41:00,
2013-01-13 12:46:00,75.0,70.5,29.95,WSW,248,13.8,27.2,86,0.00,CLR,,0.00,WeatherDisplay:10.37,2013-01-13 18:46:00,
2013-01-13 12:51:00,75.0,70.5,29.95,SSW,202,9.2,12.6,86,0.00,CLR,,0.00,WeatherDisplay:10.37,2013-01-13 18:51:00,
2013-01-13 12:56:00,75.0,70.2,29.95,SE,135,15.0,28.9,85,0.00,CLR,,0.00,WeatherDisplay:10.37,2013-01-13 18:56:00,
2013-01-13 13:01:00,75.0,70.2,29.95,SSE,158,10.4,20.1,85,0.00,CLR,,0.00,WeatherDisplay:10.37,2013-01-13 19:01:00,
2013-01-13 13:06:00,74.8,70.4,29.95,SSE,158,3.5,7.0,86,0.00,CLR,,0.00,WeatherDisplay:10.37,2013-01-13 19:06:00,
2013-01-13 13:11:00,74.8,70.4,29.95,SSE,158,11.5,22.8,86,0.00,CLR,,0.00,WeatherDisplay:10.37,2013-01-13 19:11:00,
2013-01-13 13:16:00,74.8,70.4,29.95,South,180,9.2,19.3,86,0.00,CLR,,0.00,WeatherDisplay:10.37,2013-01-13 19:16:00,
2013-01-13 13:21:00,74.8,70.4,29.95,SSW,202,17.3,27.9,86,0.00,,,0.00,WeatherDisplay:10.37,2013-01-13 19:21:00,
2013-01-13 13:26:00,74.8,70.4,29.95,SSW,202,9.2,9.2,86,0.00,CLR,,0.00,WeatherDisplay:10.37,2013-01-13 19:26:00,
2013-01-13 13:31:00,74.8,70.4,29.95,South,180,8.1,9.8,86,0.00,CLR,,0.00,WeatherDisplay:10.37,2013-01-13 19:31:00,
2013-01-13 13:36:00,74.7,70.2,29.95,SSE,158,13.8,27.8,86,0.00,CLR,,0.00,WeatherDisplay:10.37,2013-01-13 19:36:00,
2013-01-13 13:42:00,74.8,70.4,29.95,South,180,8.1,16.6,86,0.00,CLR,,0.00,WeatherDisplay:10.37,2013-01-13 19:42:00,
2013-01-13 13:47:00,75.0,70.5,29.95,SSE,158,4.6,8.0,86,0.00,CLR,,0.00,WeatherDisplay:10.37,2013-01-13 19:47:00,
2013-01-13 13:52:00,75.2,70.7,29.95,SSE,158,11.9,23.7,86,0.00,CLR,,0.00,WeatherDisplay:10.37,2013-01-13 19:52:00,
2013-01-13 13:57:00,75.2,70.7,29.95,SSW,202,3.5,7.3,86,0.00,CLR,,0.00,WeatherDisplay:10.37,2013-01-13 19:57:00,
2013-01-13 14:02:00,75.4,70.9,29.94,SW,225,13.8,25.8,86,0.00,CLR,,0.00,WeatherDisplay:10.37,2013-01-13 20:02:00,
2013-01-13 14:07:00,75.4,70.9,29.94,SW,225,10.6,21.0,86,0.00,CLR,,0.00,WeatherDisplay:10.37,2013-01-13 20:07:00,
2013-01-13 14:12:00,75.0,70.5,29.94,South,180,17.3,31.4,86,0.00,,,0.00,WeatherDisplay:10.37,2013-01-13 20:12:00,
2013-01-13 14:17:00,75.0,70.5,29.95,SSE,158,0.0,9.0,86,0.00,CLR,,0.00,WeatherDisplay:10.37,2013-01-13 20:17:00,
2013-01-13 14:22:00,75.0,70.5,29.95,SSE,158,9.2,17.5,86,0.00,CLR,,0.00,WeatherDisplay:10.37,2013-01-13 20:22:00,
2013-01-13 14:27:00,75.0,70.5,29.94,SSW,202,12.7,20.1,86,0.00,CLR,,0.00,WeatherDisplay:10.37,2013-01-13 20:27:00,
2013-01-13 14:32:00,75.0,70.5,29.94,South,180,10.4,11.6,86,0.00,CLR,,0.00,WeatherDisplay:10.37,2013-01-13 20:32:00,
2013-01-13 14:37:00,75.0,70.5,29.94,SSE,158,12.7,12.7,86,0.00,CLR,,0.00,WeatherDisplay:10.37,2013-01-13 20:37:00,
2013-01-13 14:42:00,75.0,70.5,29.94,South,180,12.7,24.6,86,0.00,CLR,,0.00,WeatherDisplay:10.37,2013-01-13 20:42:00,
2013-01-13 14:47:00,75.0,70.5,29.94,South,180,11.9,23.5,86,0.00,CLR,,0.00,WeatherDisplay:10.37,2013-01-13 20:47:00,
2013-01-13 14:52:00,75.0,70.5,29.94,SSW,202,9.2,9.2,86,0.00,CLR,,0.00,WeatherDisplay:10.37,2013-01-13 20:52:00,
2013-01-13 14:57:00,74.8,70.4,29.94,SW,225,8.1,15.8,86,0.00,CLR,,0.00,WeatherDisplay:10.37,2013-01-13 20:57:00,
2013-01-13 15:02:00,74.8,70.4,29.94,SW,225,3.5,11.2,86,0.00,CLR,,0.00,WeatherDisplay:10.37,2013-01-13 21:02:00,
2013-01-13 15:07:00,74.5,70.0,29.95,SSE,158,13.8,26.3,86,0.00,CLR,,0.00,WeatherDisplay:10.37,2013-01-13 21:07:00,
2013-01-13 15:12:00,74.7,70.2,29.94,SSE,158,7.1,10.5,86,0.00,CLR,,0.00,WeatherDisplay:10.37,2013-01-13 21:12:00,
2013-01-13 15:17:00,74.8,70.4,29.94,SW,225,6.9,8.8,86,0.00,CLR,,0.00,WeatherDisplay:10.37,2013-01-13 21:17:00,
2013-01-13 15:22:00,74.8,70.4,29.94,SW,225,12.7,13.1,86,0.00,CLR,,0.00,WeatherDisplay:10.37,2013-01-13 21:22:00,
2013-01-13 15:27:00,74.8,70.4,29.95,South,180,9.2,17.1,86,0.00,CLR,,0.00,WeatherDisplay:10.37,2013-01-13 21:27:00,
2013-01-13 15:32:00,74.8,70.4,29.95,SW,225,11.5,21.3,86,0.00,CLR,,0.00,WeatherDisplay:10.37,2013-01-13 21:32:00,
2013-01-13 15:37:00,74.8,70.4,29.95,SSE,158,8.1,15.3,86,0.00,CLR,,0.00,WeatherDisplay:10.37,2013-01-13 21:37:00,
2013-01-13 15:42:00,74.8,70.4,29.94,South,180,11.5,19.4,86,0.00,CLR,,0.00,WeatherDisplay:10.37,2013-01-13 21:42:00,
2013-01-13 15:47:00,74.7,70.2,29.95,South,180,11.5,11.5,86,0.00,CLR,,0.00,WeatherDisplay:10.37,2013-01-13 21:47:00,
2013-01-13 15:52:00,74.5,70.0,29.95,South,180,5.8,11.4,86,0.00,CLR,,0.00,WeatherDisplay:10.37,2013-01-13 21:52:00,
2013-01-13 15:57:00,74.5,70.0,29.96,South,180,3.5,4.5,86,0.00,CLR,,0.00,WeatherDisplay:10.37,2013-01-13 21:57:00,
2013-01-13 16:02:00,74.5,70.0,29.95,South,180,15.0,21.9,86,0.00,,,0.00,WeatherDisplay:10.37,2013-01-13 22:02:00,
2013-01-13 16:07:00,74.5,70.0,29.95,SSW,202,12.7,25.4,86,0.00,CLR,,0.00,WeatherDisplay:10.37,2013-01-13 22:07:00,
2013-01-13 16:12:00,74.5,70.0,29.96,SSW,202,6.9,10.9,86,0.00,CLR,,0.00,WeatherDisplay:10.37,2013-01-13 22:12:00,
2013-01-13 16:17:00,74.5,70.0,29.96,South,180,2.3,4.4,86,0.00,CLR,,0.00,WeatherDisplay:10.37,2013-01-13 22:17:00,
2013-01-13 16:22:00,74.3,70.2,29.97,South,180,0.0,2.5,87,0.00,CLR,,0.00,WeatherDisplay:10.37,2013-01-13 22:22:00,
2013-01-13 16:27:00,74.1,70.0,29.97,SW,225,11.5,13.1,87,0.00,CLR,,0.00,WeatherDisplay:10.37,2013-01-13 22:27:00,
2013-01-13 16:32:00,74.1,70.0,29.97,South,180,1.3,2.6,87,0.00,CLR,,0.00,WeatherDisplay:10.37,2013-01-13 22:32:00,
2013-01-13 16:37:00,74.1,70.0,29.97,SSW,202,9.2,18.4,87,0.00,CLR,,0.00,WeatherDisplay:10.37,2013-01-13 22:37:00,
2013-01-13 16:42:00,73.9,69.8,29.97,SW,225,10.4,16.0,87,0.00,CLR,,0.00,WeatherDisplay:10.37,2013-01-13 22:42:00,
2013-01-13 16:47:00,73.9,69.8,29.97,SW,225,5.8,9.9,87,0.00,CLR,,0.00,WeatherDisplay:10.37,2013-01-13 22:47:00,
2013-01-13 16:52:00,73.8,70.0,29.97,SW,225,11.5,24.0,88,0.00,CLR,,0.00,WeatherDisplay:10.37,2013-01-13 22:52:00,
2013-01-13 16:57:00,73.8,70.0,29.97,South,180,5.8,9.1,88,0.00,CLR,,0.00,WeatherDisplay:10.37,2013-01-13 22:57:00,
2013-01-13 17:02:00,73.6,69.8,29.97,SW,225,12.7,24.5,88,0.00,CLR,,0.00,WeatherDisplay:10.37,2013-01-13 23:02:00,
2013-01-13 17:07:00,73.4,69.6,29.97,SW,225,2.3,7.9,88,0.00,CLR,,0.00,WeatherDisplay:10.37,2013-01-13 23:07:00,
2013-01-13 17:12:00,73.2,69.5,29.97,SSW,202,4.6,7.9,88,0.00,CLR,,0.00,WeatherDisplay:10.37,2013-01-13 23:12:00,
2013-01-13 17:17:00,73.2,69.5,29.97,South,180,4.6,9.6,88,0.00,CLR,,0.00,WeatherDisplay:10.37,2013-01-13 23:17:00,
2013-01-13 17:22:00,73.0,69.3,29.97,SSW,202,9.2,17.5,88,0.00,CLR,,0.00,WeatherDisplay:10.37,2013-01-13 23:22:00,
2013-01-13 17:27:00,72.9,69.4,29.97,SSE,158,10.6,19.1,89,0.00,CLR,,0.00,WeatherDisplay:10.37,2013-01-13 23:27:00,
2013-01-13 17:32:00,72.7,69.2,29.97,South,180,5.8,8.8,89,0.00,CLR,,0.00,WeatherDisplay:10.37,2013-01-13 23:32:00,
2013-01-13 17:38:00,72.5,69.1,29.97,SSE,158,6.9,13.1,89,0.00,CLR,,0.00,WeatherDisplay:10.37,2013-01-13 23:38:00,
2013-01-13 17:43:00,72.3,68.9,29.98,South,180,3.5,7.0,89,0.00,CLR,,0.00,WeatherDisplay:10.37,2013-01-13 23:43:00,
2013-01-13 17:48:00,72.3,68.9,29.97,South,180,11.5,16.7,89,0.00,CLR,,0.00,WeatherDisplay:10.37,2013-01-13 23:48:00,
2013-01-13 17:53:00,72.1,69.0,29.97,South,180,9.2,16.8,90,0.00,CLR,,0.00,WeatherDisplay:10.37,2013-01-13 23:53:00,
2013-01-13 17:58:00,72.0,68.9,29.97,SSE,158,12.7,24.5,90,0.00,CLR,,0.00,WeatherDisplay:10.37,2013-01-13 23:58:00,
2013-01-13 18:03:00,71.8,68.7,29.97,SSW,202,9.2,18.3,90,0.00,CLR,,0.00,WeatherDisplay:10.37,2013-01-14 00:03:00,
2013-01-13 18:08:00,71.8,69.0,29.97,SSW,202,11.9,23.7,91,0.00,CLR,,0.00,WeatherDisplay:10.37,2013-01-14 00:08:00,
2013-01-13 18:13:00,71.8,69.0,29.97,South,180,4.9,9.6,91,0.00,CLR,,0.00,WeatherDisplay:10.37,2013-01-14 00:13:00,
2013-01-13 18:18:00,71.6,68.8,29.97,SSE,158,8.4,10.5,91,0.00,CLR,,0.00,WeatherDisplay:10.37,2013-01-14 00:18:00,
2013-01-13 18:23:00,71.4,68.7,29.98,SSE,158,12.7,15.3,91,0.00,CLR,,0.00,WeatherDisplay:10.37,2013-01-14 00:23:00,
2013-01-13 18:28:00,71.4,68.7,29.98,SSW,202,0.0,0.0,91,0.00,CLR,,0.00,WeatherDisplay:10.37,2013-01-14 00:28:00,
2013-01-13 18:33:00,71.4,68.7,29.98,SSW,202,11.5,21.8,91,0.00,CLR,,0.00,WeatherDisplay:10.37,2013-01-14 00:33:00,
2013-01-13 18:38:00,71.4,68.7,29.98,SW,225,8.1,8.1,91,0.00,CLR,,0.00,WeatherDisplay:10.37,2013-01-14 00:38:00,
2013-01-13 18:43:00,71.4,68.7,29.98,SSE,158,9.2,14.7,91,0.00,CLR,,0.00,WeatherDisplay:10.37,2013-01-14 00:43:00,
2013-01-13 18:48:00,71.4,68.7,29.99,South,180,8.1,13.9,91,0.00,CLR,,0.00,WeatherDisplay:10.37,2013-01-14 00:48:00,
2013-01-13 18:53:00,71.4,68.7,29.99,SSW,202,3.5,4.4,91,0.00,CLR,,0.00,WeatherDisplay:10.37,2013-01-14 00:53:00,
2013-01-13 18:58:00,71.4,68.7,29.99,South,180,1.1,1.8,91,0.00,CLR,,0.00,WeatherDisplay:10.37,2013-01-14 00:58:00,
2013-01-13 19:03:00,71.4,68.7,29.99,South,180,6.2,6.2,91,0.00,CLR,,0.00,WeatherDisplay:10.37,2013-01-14 01:03:00,
2013-01-13 19:08:00,71.4,68.7,29.99,SSE,158,5.8,8.1,91,0.00,CLR,,0.00,WeatherDisplay:10.37,2013-01-14 01:08:00,
2013-01-13 19:13:00,71.4,68.7,29.99,SSE,158,4.0,7.9,91,0.00,CLR,,0.00,WeatherDisplay:10.37,2013-01-14 01:13:00,
2013-01-13 19:18:00,71.4,69.0,29.99,South,180,0.0,0.0,92,0.00,CLR,,0.00,WeatherDisplay:10.37,2013-01-14 01:18:00,
2013-01-13 19:23:00,71.4,69.0,29.99,SSW,202,3.5,6.3,92,0.00,CLR,,0.00,WeatherDisplay:10.37,2013-01-14 01:23:00,
2013-01-13 19:28:00,71.4,69.0,29.99,South,180,5.8,10.7,92,0.00,CLR,,0.00,WeatherDisplay:10.37,2013-01-14 01:28:00,
2013-01-13 19:33:00,71.4,69.0,29.98,SSE,158,3.5,7.0,92,0.00,CLR,,0.00,WeatherDisplay:10.37,2013-01-14 01:33:00,
2013-01-13 19:38:00,71.4,69.0,29.99,South,180,3.5,4.4,92,0.00,CLR,,0.00,WeatherDisplay:10.37,2013-01-14 01:38:00,
2013-01-13 19:43:00,71.2,68.8,29.99,South,180,3.5,7.0,92,0.00,CLR,,0.00,WeatherDisplay:10.37,2013-01-14 01:43:00,
2013-01-13 19:48:00,71.4,69.0,29.99,SSE,158,4.6,9.2,92,0.00,CLR,,0.00,WeatherDisplay:10.37,2013-01-14 01:48:00,
2013-01-13 19:53:00,71.2,68.8,29.98,SSW,202,5.8,8.5,92,0.00,CLR,,0.00,WeatherDisplay:10.37,2013-01-14 01:53:00,
2013-01-13 19:58:00,71.2,68.8,29.99,SSE,158,5.8,11.4,92,0.00,CLR,,0.00,WeatherDisplay:10.37,2013-01-14 01:58:00,
2013-01-13 20:03:00,71.2,68.8,29.98,SW,225,8.1,13.3,92,0.00,CLR,,0.00,WeatherDisplay:10.37,2013-01-14 02:03:00,
2013-01-13 20:08:00,71.2,68.8,29.98,SSW,202,3.5,3.6,92,0.00,CLR,,0.00,WeatherDisplay:10.37,2013-01-14 02:08:00,
2013-01-13 20:13:00,71.2,68.8,29.98,South,180,3.5,6.1,92,0.00,CLR,,0.00,WeatherDisplay:10.37,2013-01-14 02:13:00,
2013-01-13 20:18:00,71.2,68.8,29.99,SSW,202,2.7,5.3,92,0.00,CLR,,0.00,WeatherDisplay:10.37,2013-01-14 02:18:00,
2013-01-13 20:23:00,71.2,68.8,29.99,South,180,6.9,7.1,92,0.00,CLR,,0.00,WeatherDisplay:10.37,2013-01-14 02:23:00,
2013-01-13 20:28:00,71.2,68.8,29.98,SSE,158,4.0,7.9,92,0.00,CLR,,0.00,WeatherDisplay:10.37,2013-01-14 02:28:00,
2013-01-13 20:33:00,71.2,68.8,29.98,SW,225,9.2,15.0,92,0.00,CLR,,0.00,WeatherDisplay:10.37,2013-01-14 02:33:00,
2013-01-13 20:38:00,71.2,68.8,29.98,South,180,8.1,11.3,92,0.00,CLR,,0.00,WeatherDisplay:10.37,2013-01-14 02:38:00,
2013-01-13 20:43:00,71.2,68.8,29.98,South,180,3.5,7.0,92,0.00,CLR,,0.00,WeatherDisplay:10.37,2013-01-14 02:43:00,
2013-01-13 20:48:00,71.2,68.8,29.98,SSE,158,9.2,9.2,92,0.00,CLR,,0.00,WeatherDisplay:10.37,2013-01-14 02:48:00,
2013-01-13 20:53:00,71.2,68.8,29.98,South,180,3.5,3.7,92,0.00,CLR,,0.00,WeatherDisplay:10.37,2013-01-14 02:53:00,
2013-01-13 20:58:00,71.2,68.8,29.99,SW,225,6.2,12.3,92,0.00,CLR,,0.00,WeatherDisplay:10.37,2013-01-14 02:58:00,
2013-01-13 21:03:00,71.2,68.8,29.99,South,180,9.2,14.5,92,0.00,CLR,,0.00,WeatherDisplay:10.37,2013-01-14 03:03:00,
2013-01-13 21:08:00,71.2,68.8,29.99,SW,225,8.1,12.4,92,0.00,CLR,,0.00,WeatherDisplay:10.37,2013-01-14 03:08:00,
2013-01-13 21:13:00,71.2,68.8,29.99,SSW,202,5.8,11.4,92,0.00,CLR,,0.00,WeatherDisplay:10.37,2013-01-14 03:13:00,
2013-01-13 21:18:00,71.2,68.8,29.99,SW,225,5.3,5.3,92,0.00,CLR,,0.00,WeatherDisplay:10.37,2013-01-14 03:18:00,
2013-01-13 21:23:00,71.2,68.8,29.99,SSE,158,13.8,20.8,92,0.00,CLR,,0.00,WeatherDisplay:10.37,2013-01-14 03:23:00,
2013-01-13 21:28:00,71.2,69.1,29.99,SSE,158,3.5,7.0,93,0.00,CLR,,0.00,WeatherDisplay:10.37,2013-01-14 03:28:00,
2013-01-13 21:33:00,71.1,68.6,29.99,SSW,202,3.1,3.1,92,0.00,CLR,,0.00,WeatherDisplay:10.37,2013-01-14 03:33:00,
2013-01-13 21:38:00,70.9,68.8,29.99,South,180,3.5,5.7,93,0.00,CLR,,0.00,WeatherDisplay:10.37,2013-01-14 03:38:00,
2013-01-13 21:43:00,71.1,68.9,29.99,SW,225,0.0,0.0,93,0.00,CLR,,0.00,WeatherDisplay:10.37,2013-01-14 03:43:00,
2013-01-13 21:48:00,70.9,68.8,29.99,SSE,158,5.8,5.8,93,0.00,CLR,,0.00,WeatherDisplay:10.37,2013-01-14 03:48:00,
2013-01-13 21:53:00,70.9,68.8,29.99,SE,135,3.5,3.9,93,0.00,CLR,,0.00,WeatherDisplay:10.37,2013-01-14 03:53:00,
2013-01-13 21:58:00,70.9,68.8,30.00,SSW,202,4.6,9.6,93,0.00,CLR,,0.00,WeatherDisplay:10.37,2013-01-14 03:58:00,
2013-01-13 22:03:00,70.9,68.8,29.99,South,180,3.5,6.1,93,0.00,CLR,,0.00,WeatherDisplay:10.37,2013-01-14 04:03:00,
2013-01-13 22:08:00,70.7,68.6,29.99,South,180,2.3,4.1,93,0.00,CLR,,0.00,WeatherDisplay:10.37,2013-01-14 04:08:00,
2013-01-13 22:13:00,70.7,68.6,29.99,SSW,202,2.3,4.4,93,0.00,CLR,,0.00,WeatherDisplay:10.37,2013-01-14 04:13:00,
2013-01-13 22:18:00,70.7,68.6,29.99,SW,225,4.6,8.8,93,0.00,CLR,,0.00,WeatherDisplay:10.37,2013-01-14 04:18:00,
2013-01-13 22:23:00,70.7,68.6,29.99,SSE,158,6.9,7.4,93,0.00,CLR,,0.00,WeatherDisplay:10.37,2013-01-14 04:23:00,
2013-01-13 22:28:00,70.7,68.6,29.99,South,180,2.3,5.3,93,0.00,CLR,,0.00,WeatherDisplay:10.37,2013-01-14 04:28:00,
2013-01-13 22:33:00,70.7,68.6,29.99,South,180,2.3,5.3,93,0.00,CLR,,0.00,WeatherDisplay:10.37,2013-01-14 04:33:00,
2013-01-13 22:38:00,70.5,68.4,29.99,SW,225,11.5,11.5,93,0.00,CLR,,0.00,WeatherDisplay:10.37,2013-01-14 04:38:00,
2013-01-13 22:43:00,70.5,68.4,29.98,South,180,4.9,9.6,93,0.00,CLR,,0.00,WeatherDisplay:10.37,2013-01-14 04:43:00,
2013-01-13 22:48:00,70.5,68.4,29.99,SW,225,11.9,11.9,93,0.00,CLR,,0.00,WeatherDisplay:10.37,2013-01-14 04:48:00,
2013-01-13 22:53:00,70.5,68.4,29.99,South,180,5.8,5.8,93,0.00,CLR,,0.00,WeatherDisplay:10.37,2013-01-14 04:53:00,
2013-01-13 22:58:00,70.5,68.4,29.99,SSE,158,1.1,1.8,93,0.00,CLR,,0.00,WeatherDisplay:10.37,2013-01-14 04:58:00,
2013-01-13 23:00:00,70.5,68.4,29.99,SW,225,1.1,1.8,93,0.00,CLR,,0.00,WeatherDisplay:10.37,2013-01-14 05:00:00,
2013-01-13 23:01:00,70.5,68.4,29.99,SW,225,1.1,1.2,93,0.00,CLR,,0.00,WeatherDisplay:10.37,2013-01-14 05:01:00,
2013-01-13 23:04:00,70.7,68.6,29.99,SW,225,8.1,14.9,93,0.00,CLR,,0.00,WeatherDisplay:10.37,2013-01-14 05:04:00,
2013-01-13 23:06:00,70.5,68.4,29.99,South,180,8.1,8.1,93,0.00,CLR,,0.00,WeatherDisplay:10.37,2013-01-14 05:06:00,
2013-01-13 23:11:00,70.7,68.6,29.99,South,180,3.5,7.9,93,0.00,CLR,,0.00,WeatherDisplay:10.37,2013-01-14 05:11:00,
2013-01-13 23:16:00,70.7,68.6,29.99,South,180,4.6,5.4,93,0.00,CLR,,0.00,WeatherDisplay:10.37,2013-01-14 05:16:00,
2013-01-13 23:21:00,70.7,68.6,29.99,South,180,2.3,3.5,93,0.00,CLR,,0.00,WeatherDisplay:10.37,2013-01-14 05:21:00,
2013-01-13 23:26:00,70.7,68.6,29.99,SSE,158,1.1,2.3,93,0.00,CLR,,0.00,WeatherDisplay:10.37,2013-01-14 05:26:00,
2013-01-13 23:31:00,70.7,68.6,29.99,South,180,3.5,4.2,93,0.00,CLR,,0.00,WeatherDisplay:10.37,2013-01-14 05:31:00,
2013-01-13 23:36:00,70.7,68.6,29.99,South,180,1.3,2.6,93,0.00,CLR,,0.00,WeatherDisplay:10.37,2013-01-14 05:36:00,
2013-01-13 23:41:00,70.7,68.6,29.99,South,180,2.3,4.2,93,0.00,CLR,,0.00,WeatherDisplay:10.37,2013-01-14 05:41:00,
2013-01-13 23:46:00,70.7,68.6,29.99,South,180,0.0,0.0,93,0.00,CLR,,0.00,WeatherDisplay:10.37,2013-01-14 05:46:00,
2013-01-13 23:51:00,70.7,68.6,29.99,South,180,2.3,5.3,93,0.00,CLR,,0.00,WeatherDisplay:10.37,2013-01-14 05:51:00,
2013-01-13 23:56:00,70.7,68.6,29.99,South,180,1.3,1.9,93,0.00,CLR,,0.00,WeatherDisplay:10.37,2013-01-14 05:56:00,